Regional Weather Roundup
Issued by NWS Raleigh/Durham, NC

Home | Current Version | Previous Version | Text Only | Print | Product List | Glossary On
Versions: 1 2 3 4 5 6 7 8 9 10 11 12 13 14 15 16 17 18 19 20 21 22 23 24 25 26 27
000
ASUS42 KRAH 231210
RWRRAH
NORTH CAROLINA WEATHER ROUNDUP
NATIONAL WEATHER SERVICE RALEIGH NC
700 AM EST MON JAN 23 2017

NOTE: "FAIR" INDICATES FEW OR NO CLOUDS BELOW 12,000 FEET WITH NO
SIGNIFICANT WEATHER AND/OR OBSTRUCTIONS TO VISIBILITY.

NCZ001-053-055-056-065-067-231300-
WESTERN NORTH CAROLINA

CITY           SKY/WX    TMP DP  RH WIND       PRES   REMARKS
ASHEVILLE      CLOUDY    47  44  90 S5        29.18S
JEFFERSON      RAIN      43  43  99 CALM      29.20R
MORGANTON      CLOUDY    48  48 100 NE3       29.23R FOG
HICKORY        CLOUDY    49  49 100 CALM      29.19R
RUTHERFORDTON  CLOUDY    48  48 100 SE3       29.20R
MOUNT AIRY     LGT RAIN  50  47  92 E13G21    29.23S
BOONE          RAIN      43  43 100 CALM      29.21R
$$

NCZ021-022-025-041-071-084-088-231300-
CENTRAL NORTH CAROLINA

CITY           SKY/WX    TMP DP  RH WIND       PRES   REMARKS
CHARLOTTE      PTCLDY    48  45  89 S8        29.22R
GREENSBORO     LGT RAIN  50  50 100 E3        29.20S FOG
WINSTON-SALEM  LGT RAIN  49  47  93 NE7       29.22R FOG
RALEIGH-DURHAM CLOUDY    54  53  97 SE7       29.22R
FORT BRAGG     CLEAR     54  50  88 SW7       29.25R
FAYETTEVILLE   CLEAR     54  50  86 SW12      29.26R
BURLINGTON     LGT RAIN  51  50  96 E3        29.21R FOG
LAURINBURG     CLEAR     51  49  92 SW8       29.28R
$$

NCZ011-015-027-028-043-044-047-080-103-231300-
NORTHEASTERN NORTH CAROLINA

CITY           SKY/WX    TMP DP  RH WIND       PRES   REMARKS
ROCKY MT-WILSO CLOUDY    53  53 100 VRB6      29.24F
GREENVILLE     CLOUDY    54  54 100 SE6       29.31R
WASHINGTON     CLOUDY    54  53  98 CALM        N/A
ELIZABETH CITY CLOUDY    58  57  97 E14       29.28F
MANTEO         LGT RAIN  58  58 100 SW3       29.30S
CAPE HATTERAS  LGT RAIN  63  60  90 W7        29.27F FOG
$$

NCZ078-087-090-091-093-098-101-231300-
SOUTHEASTERN NORTH CAROLINA

CITY           SKY/WX    TMP DP  RH WIND       PRES   REMARKS
LUMBERTON      CLEAR     51  49  92 SW7       29.28R
GOLDSBORO      CLOUDY    57  57 100 S3        29.22S
KINSTON        CLOUDY    57  57 100 SE3       29.25S
KENANSVILLE    PTCLDY    55  54  94 SW10      29.27R
NEW BERN       MOCLDY    56  55  97 S6        29.27S
CHERRY POINT   CLOUDY    58  56  93 S12       29.28R
BEAUFORT       MOCLDY    60  57  89 SW15      29.28R
JACKSONVILLE   CLEAR     59  58  96 SW13      29.26R
WILMINGTON     CLEAR     54  50  86 SW10      29.31R
$$





USA.gov is the U.S. government's official web portal to all federal, state and local government web resources and services.